| time (UTC) | temp F | wind direction | speed knots | gust knots | rain 1hr in | rain 24hr in | rain mn in | humidity % | barometer mb |
| 20260510164527 | 82 | 359 | 1.7 | 5.2 | 0.00 | 1.22 | 0.00 | 69 | 1016.3 |
| 20260510163008 | 80 | 1 | 2.6 | 5.2 | 0.00 | 1.26 | 0.00 | 72 | 1016.5 |
| 20260510161512 | 78 | 340 | 2.6 | 6.1 | 0.00 | 1.28 | 0.00 | 75 | 1016.5 |
| 20260510160018 | 79 | 47 | 2.6 | 4.3 | 0.00 | 1.32 | 0.00 | 73 | 1016.5 |
| 20260510154524 | 77 | 68 | 1.7 | 6.1 | 0.00 | 1.35 | 0.00 | 79 | 1016.3 |
| 20260510153027 | 77 | 72 | 0.9 | 4.3 | 0.00 | 1.40 | 0.00 | 82 | 1016.3 |
| 20260510151507 | 75 | 20 | 2.6 | 7.0 | 0.00 | 1.48 | 0.00 | 84 | 1016.3 |
| 20260510150016 | 74 | 118 | 0.9 | 6.1 | 0.00 | 1.54 | 0.00 | 89 | 1016.5 |
| 20260510144524 | 71 | 25 | 2.6 | 5.2 | 0.00 | 1.64 | 0.00 | 93 | 1016.6 |
| 20260510143029 | 70 | 31 | 0.9 | 2.6 | 0.00 | 1.72 | 0.00 | 95 | 1016.8 |
| 20260510141528 | 69 | 1 | 1.7 | 5.2 | 0.00 | 1.78 | 0.00 | 96 | 1016.7 |
| 20260510140009 | 68 | 28 | 1.7 | 7.0 | 0.00 | 1.79 | 0.00 | 97 | 1016.6 |
| 20260510134521 | 68 | 13 | 2.6 | 7.0 | 0.00 | 1.81 | 0.00 | 97 | 1016.4 |
| 20260510133022 | 68 | 6 | 2.6 | 5.2 | 0.00 | 1.86 | 0.00 | 97 | 1016.2 |
| 20260510131526 | 67 | 1 | 0.9 | 5.2 | 0.00 | 1.93 | 0.00 | 97 | 1016.0 |
| 20260510130028 | 67 | 44 | 0.9 | 4.3 | 0.00 | 2.22 | 0.00 | 97 | 1016.1 |
| 20260510124516 | 66 | 48 | 3.5 | 5.2 | 0.00 | 3.06 | 0.00 | 97 | 1015.7 |
| 20260510123019 | 66 | 2 | 1.7 | 5.2 | 0.00 | 3.10 | 0.00 | 97 | 1015.6 |
| 20260510121525 | 65 | 22 | 0.9 | 3.5 | 0.00 | 3.10 | 0.00 | 97 | 1015.5 |
| 20260510120025 | 65 | 48 | 1.7 | 2.6 | 0.00 | 3.10 | 0.00 | 97 | 1015.3 |
| 20260510114526 | 65 | 51 | 0.9 | 2.6 | 0.00 | 3.10 | 0.00 | 97 | 1014.9 |
| 20260510113018 | 65 | 44 | 0.9 | 3.5 | 0.00 | 3.10 | 0.00 | 97 | 1014.4 |
| 20260510111521 | 65 | 8 | 2.6 | 5.2 | 0.00 | 3.10 | 0.00 | 97 | 1013.9 |
| 20260510110033 | 65 | 58 | 1.7 | 2.6 | 0.00 | 3.10 | 0.00 | 97 | 1013.7 |
| 20260510104525 | 65 | 60 | 2.6 | 3.5 | 0.00 | 3.10 | 0.00 | 97 | 1013.6 |
| 20260510103029 | 65 | 352 | 1.7 | 3.5 | 0.00 | 3.10 | 0.00 | 97 | 1013.3 |
| 20260510101519 | 65 | 46 | 1.7 | 4.3 | 0.00 | 3.10 | 0.00 | 97 | 1013.2 |
| 20260510100005 | 65 | 34 | 2.6 | 5.2 | 0.00 | 3.10 | 0.00 | 97 | 1013.0 |
| 20260510094507 | 65 | 36 | 1.7 | 3.5 | 0.00 | 3.10 | 0.00 | 97 | 1012.9 |
| 20260510093014 | 65 | 22 | 3.5 | 7.0 | 0.00 | 3.10 | 0.00 | 97 | 1012.8 |
| 20260510091517 | 66 | 13 | 2.6 | 5.2 | 0.00 | 3.11 | 0.00 | 97 | 1012.8 |
| 20260510090038 | 66 | 4 | 0.9 | 4.3 | 0.00 | 3.26 | 0.00 | 97 | 1012.8 |
| 20260510084505 | 66 | 15 | 1.7 | 3.5 | 0.00 | 3.80 | 0.00 | 97 | 1012.8 |
| 20260510083012 | 66 | 23 | 1.7 | 2.6 | 0.00 | 4.10 | 0.00 | 97 | 1012.7 |
| 20260510081514 | 66 | 29 | 0.9 | 2.6 | 0.00 | 4.10 | 0.00 | 97 | 1012.5 |
| 20260510080017 | 66 | 36 | 1.7 | 2.6 | 0.00 | 4.10 | 0.00 | 97 | 1012.5 |
| 20260510074522 | 66 | 43 | 0.9 | 3.5 | 0.00 | 4.10 | 0.00 | 97 | 1012.5 |
| 20260510073004 | 66 | 352 | 0.9 | 4.3 | 0.00 | 4.10 | 0.00 | 97 | 1012.3 |
| 20260510071512 | 67 | 37 | 1.7 | 3.5 | 0.00 | 4.10 | 0.00 | 97 | 1012.1 |
| 20260510070016 | 67 | 20 | 0.9 | 3.5 | 0.00 | 4.10 | 0.00 | 97 | 1012.4 |
| 20260510064520 | 67 | 345 | 1.7 | 4.3 | 0.00 | 4.10 | 0.00 | 97 | 1012.6 |
| 20260510063026 | 67 | 342 | 0.9 | 2.6 | 0.00 | 4.10 | 0.00 | 97 | 1012.5 |
| 20260510061507 | 67 | 23 | 1.7 | 3.5 | 0.00 | 4.10 | 0.00 | 97 | 1012.6 |
| 20260510060012 | 67 | 42 | 1.7 | 4.3 | 0.00 | 4.10 | 0.00 | 97 | 1012.7 |
| 20260510054521 | 67 | 349 | 0.0 | 0.9 | 0.00 | 4.10 | 0.00 | 97 | 1012.5 |
| 20260510053021 | 67 | 349 | 0.0 | 1.7 | 0.00 | 4.19 | 0.00 | 97 | 1012.7 |
| 20260510051526 | 67 | 30 | 0.0 | 0.9 | 0.00 | 4.19 | 0.00 | 97 | 1012.8 |
| 20260510050010 | 67 | 30 | 0.9 | 2.6 | 0.00 | 4.19 | 0.00 | 97 | 1012.6 |
| 20260510044515 | 67 | 265 | 0.0 | 1.7 | 0.00 | 4.19 | 4.19 | 97 | 1012.5 |
| 20260510043021 | 67 | 252 | 0.0 | 0.9 | 0.00 | 4.19 | 4.19 | 97 | 1012.5 |
| 20260510041524 | 67 | 333 | 0.0 | 0.9 | 0.01 | 4.19 | 4.19 | 97 | 1012.5 |
| 20260510040028 | 68 | 331 | 0.0 | 0.9 | 0.01 | 4.19 | 4.19 | 97 | 1012.5 |
| 20260510034514 | 68 | 37 | 0.0 | 1.7 | 0.01 | 4.19 | 4.19 | 97 | 1013.1 |
| 20260510033018 | 68 | 34 | 0.0 | 0.9 | 0.01 | 4.19 | 4.19 | 97 | 1013.5 |
| 20260510031525 | 68 | 231 | 0.0 | 0.9 | 0.00 | 4.17 | 4.17 | 97 | 1013.3 |
| 20260510030035 | 68 | 230 | 0.0 | 0.9 | 0.00 | 4.19 | 4.17 | 97 | 1012.8 |
| 20260510024528 | 68 | 230 | 0.0 | 0.9 | 0.00 | 4.19 | 4.17 | 97 | 1013.0 |
| 20260510023014 | 68 | 231 | 0.0 | 0.9 | 0.01 | 4.19 | 4.17 | 97 | 1013.1 |
| 20260510021522 | 68 | 8 | 0.9 | 2.6 | 0.03 | 4.19 | 4.17 | 97 | 1013.1 |
| 20260510020027 | 68 | 257 | 0.9 | 3.5 | 0.06 | 4.19 | 4.17 | 97 | 1012.3 |
| 20260510014504 | 68 | 294 | 0.9 | 3.5 | 0.07 | 4.19 | 4.17 | 97 | 1011.8 |
| 20260510013008 | 68 | 110 | 0.9 | 2.6 | 0.06 | 4.17 | 4.17 | 97 | 1011.7 |
| 20260510011517 | 68 | 30 | 0.0 | 0.9 | 0.04 | 4.16 | 4.15 | 97 | 1012.0 |
| 20260510010022 | 68 | 289 | 0.0 | 1.7 | 0.01 | 4.13 | 4.12 | 97 | 1012.6 |
| 20260510004527 | 68 | 281 | 0.0 | 1.7 | 0.00 | 4.12 | 4.11 | 97 | 1011.7 |
| 20260510003020 | 68 | 280 | 0.9 | 1.7 | 0.01 | 4.12 | 4.11 | 97 | 1011.9 |
| 20260510001514 | 68 | 262 | 0.9 | 1.7 | 0.02 | 4.12 | 4.11 | 96 | 1011.9 |
| 20260510000017 | 68 | 245 | 0.0 | 1.7 | 0.02 | 4.12 | 4.11 | 96 | 1011.8 |
| 20260509234524 | 68 | 356 | 0.0 | 1.7 | 0.03 | 4.12 | 4.11 | 96 | 1012.1 |
| 20260509233027 | 68 | 333 | 0.0 | 0.9 | 0.03 | 4.12 | 4.10 | 96 | 1012.4 |
| 20260509231511 | 68 | 333 | 0.0 | 0.9 | 0.02 | 4.12 | 4.09 | 96 | 1012.2 |
| 20260509230018 | 68 | 348 | 0.0 | 0.9 | 0.04 | 4.14 | 4.09 | 96 | 1012.0 |
| 20260509224524 | 68 | 216 | 0.0 | 1.7 | 0.04 | 4.17 | 4.08 | 96 | 1011.2 |
| 20260509223023 | 68 | 250 | 0.0 | 0.9 | 0.03 | 4.16 | 4.07 | 96 | 1011.2 |
| 20260509221530 | 68 | 250 | 0.0 | 2.6 | 0.03 | 4.16 | 4.07 | 96 | 1011.4 |
| 20260509220014 | 68 | 186 | 0.0 | 0.9 | 0.01 | 4.15 | 4.05 | 96 | 1011.7 |
| 20260509214519 | 68 | 240 | 0.0 | 1.7 | 0.00 | 4.14 | 4.04 | 96 | 1011.6 |
| 20260509213022 | 68 | 295 | 0.0 | 1.7 | 0.00 | 4.16 | 4.04 | 96 | 1011.6 |
| 20260509211534 | 68 | 248 | 0.9 | 4.3 | 0.01 | 4.19 | 4.04 | 96 | 1010.4 |
| 20260509210030 | 68 | 143 | 0.9 | 2.6 | 0.04 | 4.21 | 4.04 | 96 | 1010.4 |
| 20260509204517 | 68 | 236 | 0.0 | 4.3 | 0.07 | 4.21 | 4.04 | 96 | 1010.6 |
| 20260509203024 | 68 | 30 | 0.0 | 1.7 | 0.13 | 4.21 | 4.04 | 97 | 1011.0 |
| 20260509201525 | 68 | 281 | 0.0 | 0.9 | 0.19 | 4.23 | 4.03 | 97 | 1012.2 |
| 20260509200027 | 67 | 260 | 0.0 | 1.7 | 0.22 | 4.27 | 4.00 | 97 | 1012.3 |
| 20260509194530 | 67 | 231 | 0.9 | 3.5 | 0.23 | 4.26 | 3.97 | 96 | 1011.9 |
| 20260509193016 | 67 | 219 | 0.9 | 2.6 | 0.24 | 4.21 | 3.91 | 97 | 1011.8 |
| 20260509191521 | 67 | 214 | 0.9 | 1.7 | 0.22 | 4.14 | 3.84 | 97 | 1012.8 |
| 20260509190024 | 67 | 250 | 0.9 | 2.6 | 0.22 | 4.08 | 3.78 | 97 | 1012.6 |
| 20260509184532 | 67 | 289 | 0.9 | 1.7 | 0.24 | 4.04 | 3.74 | 97 | 1012.5 |
| 20260509183029 | 66 | 317 | 0.0 | 3.5 | 0.21 | 3.97 | 3.67 | 97 | 1012.8 |
| 20260509181519 | 66 | 310 | 0.9 | 2.6 | 0.32 | 3.92 | 3.62 | 97 | 1011.8 |
| 20260509180023 | 65 | 269 | 0.9 | 4.3 | 0.37 | 3.86 | 3.56 | 96 | 1012.0 |
| 20260509174507 | 65 | 293 | 1.7 | 7.0 | 0.52 | 3.80 | 3.50 | 96 | 1012.4 |
| 20260509173012 | 65 | 248 | 1.7 | 5.2 | 0.52 | 3.76 | 3.46 | 96 | 1012.6 |
| 20260509171517 | 65 | 276 | 0.9 | 4.3 | 0.39 | 3.60 | 3.30 | 96 | 1013.1 |
| 20260509170020 | 65 | 244 | 0.9 | 2.6 | 0.32 | 3.49 | 3.19 | 96 | 1013.1 |